This is the latest recevied weather packets stored in our database for station/object BV5AB-13. If no packets are shown the sender has not sent any weather packets the latest 10 day(s).
| Time | Temp. | Humidity | Pressure | Rain* | Wind** | Luminosity | Snow |
|---|---|---|---|---|---|---|---|
| 1777780024 | 31.11° C | 65% | 1001.4 hPa | 0 mm | - | - | - |
| 1777779424 | 30.56° C | 64% | 1001.4 hPa | 0 mm | - | - | - |
| 1777778823 | 30.56° C | 65% | 1001.4 hPa | 0 mm | - | - | - |
| 1777778224 | 30.56° C | 65% | 1001.5 hPa | 0 mm | - | - | - |
| 1777777624 | 30.56° C | 71% | 1001.4 hPa | 0 mm | - | - | - |
| 1777777024 | 30° C | 67% | 1001.5 hPa | 0 mm | - | - | - |
| 1777776423 | 30° C | 68% | 1001.7 hPa | 0 mm | - | - | - |
| 1777775823 | 29.44° C | 68% | 1001.9 hPa | 0 mm | - | - | - |
| 1777775223 | 29.44° C | 67% | 1002 hPa | 0 mm | - | - | - |
| 1777774624 | 29.44° C | 67% | 1002.1 hPa | 0 mm | - | - | - |
| 1777774023 | 29.44° C | 70% | 1002.2 hPa | 0 mm | - | - | - |
| 1777773423 | 29.44° C | 70% | 1002.2 hPa | 0 mm | - | - | - |
| 1777772823 | 29.44° C | 68% | 1002.3 hPa | 0 mm | - | - | - |
| 1777772223 | 28.89° C | 69% | 1002.2 hPa | 0 mm | - | - | - |
| 1777771624 | 28.89° C | 68% | 1002.1 hPa | 0 mm | - | - | - |
| 1777771024 | 28.89° C | 67% | 1002 hPa | 0 mm | - | - | - |
| 1777770423 | 28.89° C | 68% | 1001.8 hPa | 0 mm | - | - | - |
| 1777769824 | 28.33° C | 67% | 1001.7 hPa | 0 mm | - | - | - |
| 1777769224 | 28.89° C | 69% | 1001.7 hPa | 0 mm | - | - | - |
| 1777768624 | 28.33° C | 68% | 1001.5 hPa | 0 mm | - | - | - |
| 1777768024 | 27.78° C | 70% | 1001.4 hPa | 0 mm | - | - | - |
| 1777767423 | 27.78° C | 71% | 1001.2 hPa | 0 mm | - | - | - |
| 1777766824 | 27.22° C | 72% | 1001.3 hPa | 0 mm | - | - | - |
| 1777766224 | 26.67° C | 73% | 1001.3 hPa | 0 mm | - | - | - |
| 1777765623 | 26.67° C | 75% | 1001.1 hPa | 0 mm | - | - | - |
* Rain latest hour (hover to see other rain measurements)
** Current wind speed in m/s (hover to see current wind gust speed)